Location: Natural Bridges National Monument
(37.6093°N, 109.9767°W)
Time: 21:03:54
(UTC-06:00)

USA 32 - Visible Passes

Search period start: 30 July 2015 00:00
Search period end: 09 August 2015 00:00
Orbit: 778 x 783 km, 85.0° (Epoch: 29 July)

Date Brightness Start Highest point End Pass type
(mag) Time Alt. Az. Time Alt. Az. Time Alt. Az.
30 Jul 3.9 22:19:25 22° S 22:22:54 87° E 22:28:11 10° N visible
31 Jul 4.3 21:46:19 16° SSE 21:50:15 47° E 21:55:18 10° NNE visible
31 Jul 6.5 23:27:59 10° WSW 23:31:35 18° WNW 23:34:59 10° NNW visible
01 Aug 5.1 21:13:29 10° SE 21:17:41 26° E 21:22:03 10° NNE visible
01 Aug 5.6 22:53:54 10° SW 22:58:34 31° WNW 23:03:12 10° NNW visible
02 Aug 4.6 22:20:33 10° SSW 22:25:42 57° W 22:30:53 10° N visible
03 Aug 4.0 21:47:45 10° S 21:52:58 78° E 21:58:15 10° N visible
03 Aug 6.9 23:33:23 10° W 23:34:44 11° WNW 23:35:43 10° WNW visible
04 Aug 4.5 21:15:28 10° SSE 21:20:20 42° E 21:25:18 10° NNE visible
04 Aug 6.4 22:57:42 10° WSW 23:01:34 20° WNW 23:05:17 10° NNW visible
05 Aug 5.5 22:23:47 10° SW 22:28:35 35° W 22:33:22 10° NNW visible
06 Aug 4.4 21:50:33 10° SSW 21:55:45 65° W 22:00:59 10° N visible
07 Aug 4.0 21:17:51 10° S 21:23:02 70° E 21:28:17 10° N visible
07 Aug 6.9 23:02:29 10° W 23:04:42 12° WNW 23:06:35 10° NW visible
08 Aug 4.6 20:45:39 10° SSE 20:50:25 38° E 20:55:16 10° NNE visible
08 Aug 6.4 22:27:28 10° SW 22:31:34 22° WNW 22:35:33 10° NNW visible
